Location: ??????????
(41.2581°N, 22.8006°E)
Time: 23:17:18
(UTC+00:00)

Cosmos 1844 Rocket - Visible Passes

Search period start: 13 March 2026 00:00
Search period end: 23 March 2026 00:00
Orbit: 823 x 844 km, 71.0° (Epoch: 13 March)

Date Brightness Start Highest point End Pass type
(mag) Time Alt. Az. Time Alt. Az. Time Alt. Az.
20 Mar 5.6 21:37:46 10° NNW 21:37:56 11° NNW 21:37:56 11° NNW visible
21 Mar 5.4 21:20:11 10° NNW 21:20:45 13° NNW 21:20:45 13° NNW visible
22 Mar 5.2 21:02:36 10° NNW 21:03:36 15° NNW 21:03:36 15° NNW visible
